Regional Weather Roundup
Issued by NWS

Home | Current Version | Previous Version | Text Only | Print | Product List | Glossary On
Versions: 1 2 3 4 5 6 7 8 9 10 11 12 13 14 15 16 17 18 19 20 21 22 23 24 25 26 27 28 29 30 31 32 33 34 35 36 37 38 39 40 41 42 43 44 45 46 47 48 49 50
000
ASCA44 KEWX 030920
RWRMX

LATIN AMERICA AND CARIBBEAN REGIONAL WEATHER ROUNDUP
NATIONAL WEATHER SERVICE AUSTIN/SAN ANTONIO TX
400 AM CDT MON AUG 03 2015

NOTE: "FAIR" INDICATED FEW OR NO CLOUDS BELOW 12,000 FEET WITH NO
SIGNIFICANT WEATHER AND/OR OBSTRUCTIONS TO VISIBILITY.

BAJA CALIFORNIA

CITY           SKY/WX    TMP DP  RH WIND       PRES   REMARKS
TIJUANA        CLOUDY    68  61  77 CALM      29.89F

NORTHWESTERN MEXICO

CITY           SKY/WX    TMP DP  RH WIND       PRES   REMARKS

NORTHEASTERN MEXICO

CITY           SKY/WX    TMP DP  RH WIND       PRES   REMARKS
MONTERREY      CLEAR     73  66  78 CALM      29.87F

WESTERN MEXICO

CITY           SKY/WX    TMP DP  RH WIND       PRES   REMARKS
GUADALAJARA    CLOUDY    63  61  94 SE3       30.15S
MAZATLAN       TSTM      72  66  83 NE7       29.85F
P. VALLARTA    CLOUDY    75  73  94 E5        29.84F
ZACATECAS        N/A    N/A N/A N/A MISG        N/A

CENTRAL MEXICO

CITY           SKY/WX    TMP DP  RH WIND       PRES   REMARKS
MEXICO CITY    PTCLDY    61  54  77 S2        30.28F
QUERETARO      PTCLDY    57  54  88 CALM      30.25F
S. LUIS POTOSI MOCLDY    61  54  77 E5        30.20F
TOLUCA         FOG       48  46  93 CALM      30.35F VSB 1

SOUTHERN MEXICO

CITY           SKY/WX    TMP DP  RH WIND       PRES   REMARKS
ACAPULCO       PTCLDY    81  75  83 N5        29.81F
OAXACA         MOCLDY    61  55  82 CALM      30.16F
VERACRUZ         N/A    N/A N/A N/A MISG        N/A

YUCATAN PENINSULA

CITY           SKY/WX    TMP DP  RH WIND       PRES   REMARKS
CANCUN         PTCLDY    81  77  89 E5        29.91F
COZUMEL        PTCLDY    73  73 100 CALM      29.91F
MERIDA         CLEAR     77  73  88 SE8       29.89F
TAPACHULA      PTCLDY    79  73  83 CALM      29.83S

CENTRAL AMERICA

CITY           SKY/WX    TMP DP  RH WIND       PRES   REMARKS
MANAGUA        MOSUNNY   79  72  78 E7        29.77F

CARIBBEAN

CITY           SKY/WX    TMP DP  RH WIND       PRES   REMARKS
CURACAO        PTCLDY    81  73  78 SE9       29.89S
KINGSTON       MOCLDY    82  73  74 NW6       29.89R
NASSAU         LGT RAIN  75  75 100 VRB2      29.98
SAN JUAN       PTCLDY    81  77  89 E10       29.98R
SANTO DOMINGO  PTCLDY    73  72  94 NE6       29.94S
ST. CROIX      MOCLDY    81  73  78 E16       29.98S
ST. MAARTEN    MOCLDY    82  73  74 E12       29.97S
ST. THOMAS     CLEAR     82  73  74 E14       29.98R

$$



USA.gov is the U.S. government's official web portal to all federal, state and local government web resources and services.